Weather History for Corpus Christi, TX

Change the Weather History Date:

Sunday, July 29, 2012

  Actual Average Record
Temperature  
Mean Temperature 87 °F 84 °F  
Max Temperature 99 °F 94 °F 100 °F (1975)
Min Temperature 75 °F 75 °F 71 °F (2000)
Degree Days  
Heating Degree Days 0 0  
Month to date heating degree days 0 0  
Since 1 June heating degree days 0 0  
Since 1 July heating degree days 0 0  
Cooling Degree Days 22 20  
Month to date cooling degree days 613 548  
Year to date cooling degree days 2453 1911  
Since 1 June cooling degree days 1220 1070  
Growing Degree Days 37 (Base 50)    
Moisture  
Dew Point 73 °F    
Average Humidity 67    
Maximum Humidity 94    
Minimum Humidity 40    
Precipitation  
Precipitation 0.00 in 0.06 in 1.13 in (1933)
Month to date precipitation 1.34 2.67  
Year to date precipitation 14.30 16.30  
Snow  
Snow 0.00 in - - ()
Month to date snowfall 0.0  
Since 1 June snowfall 0.0  
Since 1 July snowfall 0.0  
Snow Depth 0.00 in    
Sea Level Pressure  
Sea Level Pressure 30.02 in    
Wind  
Wind Speed 9 mph (SSE)    
Max Wind Speed 20 mph    
Max Gust Speed 26 mph    
Visibility 10 miles    
Events      
T = Trace of Precipitation, MM = Missing Value Source: NWS Daily Summary

Daily Weather History Graph

Daily Weather History Graph

Search for Another Location

Airport:

Trip Planner

Search our weather history database for the weather conditions in past years. The results will help you decide how hot, cold, wet, or windy it might be!

Date:

Astronomy

Jul. 29, 2012 Rise Set
Actual Time 6:51 AM CDT 8:20 PM CDT
Civil Twilight 6:26 AM CDT 8:46 PM CDT
Nautical Twilight 5:55 AM CDT 9:16 PM CDT
Astronomical Twilight 5:24 AM CDT 9:48 PM CDT
Moon 5:23 PM CDT (7/29) 3:12 AM CDT (7/29)
Length of Visible Light 14h 20m
Length of Day
13h 29m
Waxing Gibbous, 85% of the Moon is Illuminated
Jul 29
Waxing Gibbous
Aug 1
Full
Aug 9
Last Quarter
Aug 17
New
Aug 24
First Quarter

Hourly Weather History & Observations

Time (CDT) Temp. Heat Index Dew Point Humidity Pressure Visibility Wind Dir Wind Speed Gust Speed Precip Events Conditions
12:51 AM 79.0 °F - 73.9 °F 84% 30.06 in 10.0 mi South 4.6 mph - N/A   Partly Cloudy
1:51 AM 79.0 °F - 73.9 °F 84% 30.04 in 10.0 mi Calm Calm - N/A   Partly Cloudy
2:51 AM 77.0 °F - 73.0 °F 88% 30.03 in 10.0 mi SSE 3.5 mph - N/A   Partly Cloudy
3:51 AM 77.0 °F - 73.0 °F 88% 30.02 in 10.0 mi South 4.6 mph - N/A   Scattered Clouds
4:51 AM 77.0 °F - 73.9 °F 90% 30.03 in 10.0 mi ESE 3.5 mph - N/A   Partly Cloudy
5:51 AM 75.9 °F - 73.0 °F 91% 30.03 in 10.0 mi SSE 3.5 mph - N/A   Partly Cloudy
6:51 AM 75.9 °F - 73.0 °F 91% 30.05 in 7.0 mi Calm Calm - N/A   Partly Cloudy
7:51 AM 79.0 °F - 75.9 °F 90% 30.06 in 10.0 mi SSE 3.5 mph - N/A   Partly Cloudy
8:51 AM 84.9 °F 94.1 °F 75.9 °F 74% 30.08 in 10.0 mi South 5.8 mph - N/A   Partly Cloudy
9:51 AM 88.0 °F 96.5 °F 73.9 °F 63% 30.08 in 10.0 mi SSW 4.6 mph - N/A   Partly Cloudy
10:51 AM 93.0 °F 100.1 °F 71.1 °F 49% 30.08 in 10.0 mi SSE 6.9 mph - N/A   Partly Cloudy
11:51 AM 96.1 °F 101.0 °F 68.0 °F 40% 30.08 in 10.0 mi Variable 5.8 mph - N/A   Partly Cloudy
12:51 PM 97.0 °F 102.8 °F 69.1 °F 40% 30.05 in 10.0 mi East 5.8 mph - N/A   Scattered Clouds
1:51 PM 98.1 °F 108.0 °F 73.0 °F 44% 30.02 in 10.0 mi East 11.5 mph 21.9 mph N/A   Scattered Clouds
2:51 PM 98.1 °F 108.0 °F 73.0 °F 44% 29.99 in 10.0 mi East 17.3 mph 21.9 mph N/A   Scattered Clouds
3:51 PM 97.0 °F 104.8 °F 71.1 °F 43% 29.98 in 10.0 mi SSE 15.0 mph 23.0 mph N/A   Partly Cloudy
4:51 PM 97.0 °F 102.2 °F 68.0 °F 39% 29.97 in 10.0 mi SSE 13.8 mph 20.7 mph N/A   Partly Cloudy
5:51 PM 95.0 °F 99.5 °F 68.0 °F 41% 29.96 in 10.0 mi SE 17.3 mph 24.2 mph N/A   Partly Cloudy
6:51 PM 91.9 °F 98.4 °F 71.1 °F 50% 29.96 in 10.0 mi SE 20.7 mph 26.5 mph N/A   Partly Cloudy
7:51 PM 88.0 °F 95.6 °F 73.0 °F 61% 29.96 in 10.0 mi SE 18.4 mph 23.0 mph N/A   Clear
8:51 PM 86.0 °F 93.8 °F 73.9 °F 67% 29.98 in 10.0 mi SSE 13.8 mph - N/A   Partly Cloudy
9:51 PM 84.9 °F 93.3 °F 75.0 °F 72% 29.99 in 10.0 mi SSE 11.5 mph - N/A   Clear
10:51 PM 84.0 °F 91.9 °F 75.0 °F 74% 30.00 in 10.0 mi South 11.5 mph - N/A   Clear
11:51 PM 84.0 °F 92.6 °F 75.9 °F 76% 30.00 in 10.0 mi South 10.4 mph - N/A   Partly Cloudy